Location: Seasalter
(51.3333°N, 1.0167°E)
Time: 14:17:45
(UTC+00:00)

ATLAS 5 CENTAUR R/B - Pass Details

Date: 26 April 2024
Orbit: 421 x 1169 km, 63.3° (Epoch: 22 May)

Event Time Altitude Azimuth Distance (km) Brightness Sun altitude
Rises 02:07:56 0° 309° (NW) 2,992 5.1 -18.8°
Reaches altitude 10° 02:10:16 10° 298° (WNW) 2,191 4.3 -18.6°
Maximum altitude 02:14:40 31° 238° (WSW) 1,402 2.8 -18.2°
Enters shadow 02:14:50 31° 234° (SW) 1,410 2.8 -18.2°
